User: anonymous   Login
Location: Unspecified
(0.0000°N, 0.0000°E)
Time: 20:06:14
(UTC+00:00)
Language:

Kosmos-1655 - Orbit

View from above orbital plane
View from above orbital plane
View from above satellite
View from above satellite

Ground track
Ground track

The orbit data is extracted from the following two-line orbital elements,

1 15751U 85041A   19341.54182530  .00000031  00000-0  18164-4 0  9991
2 15751  82.9502  21.2046 0025726 228.8617 241.0033 13.71707799728155
Epoch (UTC): 07 December 2019 13:00:13
Eccentricity: 0.0025726
inclination: 82.9502°
perigee height: 974 km
apogee height: 1012 km
right ascension of ascending node: 21.2046°
argument of perigee: 228.8617°
revolutions per day: 13.71707799
mean anomaly at epoch: 241.0033°
orbit number at epoch: 72815

The dashed part of the orbit path shows where the satellite is in the earth's shadow,  

DLR